Regional Weather Roundup
Issued by NWS

Home | Current Version | Previous Version | Text Only | Print | Product List | Glossary On
Versions: 1 2 3 4 5 6 7 8 9 10 11 12 13 14 15 16 17 18 19 20 21 22 23 24 25 26 27
000
ASUS44 KJAN 271010
RWRMS

MISSISSIPPI HOURLY WEATHER ROUNDUP
NATIONAL WEATHER SERVICE JACKSON MS
500 AM CDT MON MAR 27 2017

NOTE: "FAIR: INDICATES FEW OR NO CLOUDS BELOW 12,000 FEET WITH NO
SIGNIFICANT WEATHER AND/OR OBSTRUCTIONS TO VISIBILITY.

MSZ001>002-007>008-010>013-018>021-025>028-034>036-271100-
NORTHWEST MISSISSIPPI

CITY           SKY/WX    TMP DP  RH WIND       PRES   REMARKS
CLARKSDALE     MOCLDY    68  68 100 SW10G22   29.92S
GREENWOOD      CLOUDY    66  63  90 S9        29.95R
GREENVILLE     MOCLDY    68  62  81 S12       29.93R
OXFORD         FAIR      64  59  82 SW8       29.97R
WINONA         FAIR      64  64  98 CALM      29.96R
$$

MSZ003>006-009-014>017-022>024-029>033-037>039-271100-
NORTHEAST MISSISSIPPI

CITY           SKY/WX    TMP DP  RH WIND       PRES   REMARKS
COLUMBUS AFB   CLOUDY    64  63  94 S8        29.99R
GOLDN TRIANGLE CLOUDY    63  57  82 S9        29.95R
STARKVILLE     PTSUNNY   64  63  94 S6        29.99R
TUPELO         CLOUDY    61  58  90 SE8       29.95R
$$

MSZ040-058-271100-
CENTRAL MISSISSIPPI

CITY           SKY/WX    TMP DP  RH WIND       PRES   REMARKS
JACKSON INTL   CLOUDY    68  64  87 S8        29.96S
JACKSON HAWKNS MOCLDY    67  64  90 SE9       29.96S
MADISON        FAIR      64  63  94 CALM      29.97S
MERIDIAN KEY   CLOUDY    66  65  96 S3        30.01R
MERIDIAN NAS   CLOUDY    68  62  81 SE3       30.01R
VICKSBURG VKS  PTSUNNY   68  64  88 S7G13     29.92S
$$

MSZ059>079-271100-
SOUTH MISSISSIPPI

CITY           SKY/WX    TMP DP  RH WIND       PRES   REMARKS
COLUMBIA       PTSUNNY   68 N/A N/A SE3       30.01S
HATTIESBURG    PTCLDY    67  65  93 CALM      30.00R
MCCOMB         CLOUDY    69  66  90 S8        29.97R
NATCHEZ        MOCLDY    66  63  88 S8        29.95R
PINE BELT      PTCLDY    64  63  94 CALM      30.02R
$$

MSZ080>082-271100-
COASTAL MISSISSIPPI

CITY           SKY/WX    TMP DP  RH WIND       PRES   REMARKS
BILOXI         PTCLDY    71  69  92 S12       29.99R
PASCAGOULA     CLOUDY    71  67  87 S6        30.00R
GULFPORT       CLOUDY    72  69  90 S8        29.99S
$$

LAZ007>009-015>016-023>026-271100-
NORTHEAST LOUISIANA

CITY           SKY/WX    TMP DP  RH WIND       PRES   REMARKS
BASTROP        CLOUDY    67  67  98 CALM      29.92S
TALLULAH/VBURG CLOUDY    67  64  90 S8        29.94S
VIDALIA        CLOUDY    67  65  93 SE7       29.93S
$$




USA.gov is the U.S. government's official web portal to all federal, state and local government web resources and services.